Time,TemperatureF,DewpointF,PressureIn,WindDirection,WindDirectionDegrees,WindSpeedMPH,WindSpeedGustMPH,Humidity,HourlyPrecipIn,Conditions,Clouds,dailyrainin,SoftwareType,DateUTC
2013-01-09 00:02:00,48.7,40.7,30.13,ESE,113,0.0,0.0,74,0.00,,,0.00,WUHU216HW,2013-01-09 08:02:00,
2013-01-09 00:07:00,48.7,40.7,30.12,ESE,113,0.0,0.0,74,0.00,,,0.00,WUHU216HW,2013-01-09 08:07:00,
2013-01-09 00:12:00,48.7,40.7,30.12,ESE,113,0.0,0.0,74,0.00,,,0.00,WUHU216HW,2013-01-09 08:12:00,
2013-01-09 00:18:00,48.5,40.5,30.11,ESE,113,0.0,0.0,74,0.00,,,0.00,WUHU216HW,2013-01-09 08:18:00,
2013-01-09 00:23:00,48.3,40.7,30.11,ESE,113,0.0,0.0,75,0.00,,,0.00,WUHU216HW,2013-01-09 08:23:00,
2013-01-09 00:28:00,48.3,40.7,30.11,ESE,113,0.0,0.0,75,0.00,,,0.00,WUHU216HW,2013-01-09 08:28:00,
2013-01-09 00:33:00,48.0,40.3,30.10,ESE,113,0.0,0.0,75,0.00,,,0.00,WUHU216HW,2013-01-09 08:33:00,
2013-01-09 00:38:00,48.0,40.3,30.10,ESE,113,0.0,0.0,75,0.00,,,0.00,WUHU216HW,2013-01-09 08:38:00,
2013-01-09 00:43:00,48.0,40.3,30.10,ESE,113,0.0,0.0,75,0.00,,,0.00,WUHU216HW,2013-01-09 08:43:00,
2013-01-09 00:48:00,48.0,40.3,30.10,ESE,113,0.0,0.0,75,0.00,,,0.00,WUHU216HW,2013-01-09 08:48:00,
2013-01-09 00:53:00,47.8,40.2,30.10,ESE,113,0.0,0.0,75,0.00,,,0.00,WUHU216HW,2013-01-09 08:53:00,
2013-01-09 00:58:00,47.6,40.0,30.10,ESE,113,0.0,0.0,75,0.00,,,0.00,WUHU216HW,2013-01-09 08:58:00,
2013-01-09 01:03:00,47.4,40.2,30.11,ESE,113,0.0,0.0,76,0.00,,,0.00,WUHU216HW,2013-01-09 09:03:00,
2013-01-09 01:08:00,47.4,40.2,30.11,ESE,113,0.0,0.0,76,0.00,,,0.00,WUHU216HW,2013-01-09 09:08:00,
2013-01-09 01:13:00,47.3,40.0,30.11,ESE,113,0.0,0.0,76,0.00,,,0.00,WUHU216HW,2013-01-09 09:13:00,
2013-01-09 01:18:00,47.3,40.0,30.12,ESE,113,0.0,0.0,76,0.00,,,0.00,WUHU216HW,2013-01-09 09:18:00,
2013-01-09 01:23:00,47.1,40.2,30.11,ESE,113,0.0,0.0,77,0.00,,,0.00,WUHU216HW,2013-01-09 09:23:00,
2013-01-09 01:28:00,47.1,40.2,30.11,ESE,113,0.0,0.0,77,0.00,,,0.00,WUHU216HW,2013-01-09 09:28:00,
2013-01-09 01:34:00,47.1,40.2,30.10,ESE,113,0.0,0.0,77,0.00,,,0.00,WUHU216HW,2013-01-09 09:34:00,
2013-01-09 01:39:00,47.1,40.2,30.10,ESE,113,0.0,0.0,77,0.00,,,0.00,WUHU216HW,2013-01-09 09:39:00,
2013-01-09 01:44:00,47.1,40.2,30.10,ESE,113,0.0,0.0,77,0.00,,,0.00,WUHU216HW,2013-01-09 09:44:00,
2013-01-09 01:49:00,47.1,40.2,30.09,ESE,113,0.0,0.0,77,0.00,,,0.00,WUHU216HW,2013-01-09 09:49:00,
2013-01-09 01:54:00,47.1,40.2,30.10,ESE,113,0.0,0.0,77,0.00,,,0.00,WUHU216HW,2013-01-09 09:54:00,
2013-01-09 01:59:00,47.1,40.2,30.11,ESE,113,0.0,0.0,77,0.00,,,0.00,WUHU216HW,2013-01-09 09:59:00,
2013-01-09 02:04:00,47.3,40.4,30.10,ESE,113,0.0,0.0,77,0.00,,,0.00,WUHU216HW,2013-01-09 10:04:00,
2013-01-09 02:09:00,47.1,40.2,30.11,ESE,113,0.0,0.0,77,0.00,,,0.00,WUHU216HW,2013-01-09 10:09:00,
2013-01-09 02:14:00,47.3,40.4,30.11,ESE,113,0.0,0.0,77,0.00,,,0.00,WUHU216HW,2013-01-09 10:14:00,
2013-01-09 02:19:00,47.1,40.2,30.11,ESE,113,0.0,0.0,77,0.00,,,0.00,WUHU216HW,2013-01-09 10:19:00,
2013-01-09 02:24:00,47.1,40.2,30.11,ESE,113,0.0,0.0,77,0.00,,,0.00,WUHU216HW,2013-01-09 10:24:00,
2013-01-09 02:30:00,46.9,40.1,30.11,ESE,113,0.0,0.0,77,0.00,,,0.00,WUHU216HW,2013-01-09 10:30:00,
2013-01-09 02:35:00,46.9,40.1,30.09,ESE,113,0.0,0.0,77,0.00,,,0.00,WUHU216HW,2013-01-09 10:35:00,
2013-01-09 02:40:00,46.7,39.9,30.09,ESE,113,0.0,0.0,77,0.00,,,0.00,WUHU216HW,2013-01-09 10:40:00,
2013-01-09 02:45:00,46.9,40.1,30.09,ESE,113,0.0,0.0,77,0.00,,,0.00,WUHU216HW,2013-01-09 10:45:00,
2013-01-09 02:50:00,46.9,40.1,30.09,ESE,113,0.0,0.0,77,0.00,,,0.00,WUHU216HW,2013-01-09 10:50:00,
2013-01-09 02:55:00,46.9,40.1,30.09,ESE,113,0.0,0.0,77,0.00,,,0.00,WUHU216HW,2013-01-09 10:55:00,
2013-01-09 03:00:00,46.9,40.1,30.09,ESE,113,0.0,0.0,77,0.00,,,0.00,WUHU216HW,2013-01-09 11:00:00,
2013-01-09 03:05:00,46.7,39.9,30.09,ESE,113,0.0,0.0,77,0.00,,,0.00,WUHU216HW,2013-01-09 11:05:00,
2013-01-09 03:10:00,46.7,39.9,30.08,ESE,113,0.0,0.0,77,0.00,,,0.00,WUHU216HW,2013-01-09 11:10:00,
2013-01-09 03:15:00,46.5,39.7,30.09,ESE,113,0.0,0.0,77,0.00,,,0.00,WUHU216HW,2013-01-09 11:15:00,
2013-01-09 03:20:00,46.5,39.7,30.09,ESE,113,0.0,0.0,77,0.00,,,0.00,WUHU216HW,2013-01-09 11:20:00,
2013-01-09 03:25:00,46.2,39.4,30.08,ESE,113,0.0,0.0,77,0.00,,,0.00,WUHU216HW,2013-01-09 11:25:00,
2013-01-09 03:31:00,46.2,39.7,30.09,ESE,113,0.0,0.0,78,0.00,,,0.00,WUHU216HW,2013-01-09 11:31:00,
2013-01-09 03:36:00,46.2,39.7,30.09,ESE,113,0.0,0.0,78,0.00,,,0.00,WUHU216HW,2013-01-09 11:36:00,
2013-01-09 03:41:00,46.2,39.7,30.09,ESE,113,0.0,0.0,78,0.00,,,0.00,WUHU216HW,2013-01-09 11:41:00,
2013-01-09 03:46:00,46.2,39.7,30.10,ESE,113,0.0,0.0,78,0.00,,,0.00,WUHU216HW,2013-01-09 11:46:00,
2013-01-09 03:51:00,46.2,39.7,30.09,ESE,113,0.0,0.0,78,0.00,,,0.00,WUHU216HW,2013-01-09 11:51:00,
2013-01-09 03:56:00,46.0,39.5,30.08,East,90,0.0,0.0,78,0.00,,,0.00,WUHU216HW,2013-01-09 11:56:00,
2013-01-09 04:01:00,45.8,39.4,30.08,East,90,0.0,0.0,78,0.00,,,0.00,WUHU216HW,2013-01-09 12:01:00,
2013-01-09 04:06:00,46.0,39.5,30.09,East,90,0.0,0.0,78,0.00,,,0.00,WUHU216HW,2013-01-09 12:06:00,
2013-01-09 04:11:00,46.0,39.5,30.09,East,90,0.0,0.0,78,0.00,,,0.00,WUHU216HW,2013-01-09 12:11:00,
2013-01-09 04:16:00,45.8,39.4,30.08,East,90,0.0,0.0,78,0.00,,,0.00,WUHU216HW,2013-01-09 12:16:00,
2013-01-09 04:21:00,45.6,39.2,30.09,East,90,0.0,0.0,78,0.00,,,0.00,WUHU216HW,2013-01-09 12:21:00,
2013-01-09 04:26:00,45.6,39.2,30.08,East,90,0.0,0.0,78,0.00,,,0.00,WUHU216HW,2013-01-09 12:26:00,
2013-01-09 04:31:00,45.8,39.7,30.08,East,90,0.0,0.0,79,0.00,,,0.00,WUHU216HW,2013-01-09 12:31:00,
2013-01-09 04:36:00,45.8,39.7,30.09,East,90,0.0,0.0,79,0.00,,,0.00,WUHU216HW,2013-01-09 12:36:00,
2013-01-09 04:41:00,45.8,39.7,30.09,ENE,68,0.0,0.0,79,0.00,,,0.00,WUHU216HW,2013-01-09 12:41:00,
2013-01-09 04:46:00,46.0,39.9,30.08,ENE,68,0.0,0.0,79,0.00,,,0.00,WUHU216HW,2013-01-09 12:46:00,
2013-01-09 04:51:00,46.0,39.9,30.08,SE,135,0.0,2.0,79,0.00,,,0.00,WUHU216HW,2013-01-09 12:51:00,
2013-01-09 04:56:00,46.0,39.9,30.08,SE,135,0.0,2.0,79,0.00,,,0.00,WUHU216HW,2013-01-09 12:56:00,
2013-01-09 05:01:00,46.0,39.9,30.08,SE,135,0.0,0.0,79,0.00,,,0.00,WUHU216HW,2013-01-09 13:01:00,
2013-01-09 05:06:00,45.8,39.7,30.08,SE,135,0.0,0.0,79,0.00,,,0.00,WUHU216HW,2013-01-09 13:06:00,
2013-01-09 05:11:00,46.0,39.9,30.08,SE,135,0.0,0.0,79,0.00,,,0.00,WUHU216HW,2013-01-09 13:11:00,
2013-01-09 05:17:00,45.8,39.7,30.07,SE,135,0.0,0.0,79,0.00,,,0.00,WUHU216HW,2013-01-09 13:17:00,
2013-01-09 05:22:00,46.0,39.9,30.07,SE,135,0.0,0.0,79,0.00,,,0.00,WUHU216HW,2013-01-09 13:22:00,
2013-01-09 05:27:00,46.0,40.2,30.07,SE,135,0.0,0.0,80,0.00,,,0.00,WUHU216HW,2013-01-09 13:27:00,
2013-01-09 05:32:00,46.0,40.2,30.08,SE,135,0.0,0.0,80,0.00,,,0.00,WUHU216HW,2013-01-09 13:32:00,
2013-01-09 05:37:00,46.0,40.2,30.08,SE,135,0.0,0.0,80,0.00,,,0.00,WUHU216HW,2013-01-09 13:37:00,
2013-01-09 05:42:00,45.6,39.5,30.08,SE,135,0.0,0.0,79,0.00,,,0.00,WUHU216HW,2013-01-09 13:42:00,
2013-01-09 05:47:00,45.6,39.5,30.07,SE,135,0.0,0.0,79,0.00,,,0.00,WUHU216HW,2013-01-09 13:47:00,
2013-01-09 05:52:00,45.6,39.5,30.08,SE,135,0.0,0.0,79,0.00,,,0.00,WUHU216HW,2013-01-09 13:52:00,
2013-01-09 05:57:00,45.6,39.5,30.07,SE,135,0.0,0.0,79,0.00,,,0.00,WUHU216HW,2013-01-09 13:57:00,
2013-01-09 06:02:00,45.6,39.5,30.08,SE,135,0.0,0.0,79,0.00,,,0.00,WUHU216HW,2013-01-09 14:02:00,
2013-01-09 06:07:00,45.6,39.5,30.08,SE,135,0.0,0.0,79,0.00,,,0.00,WUHU216HW,2013-01-09 14:07:00,
2013-01-09 06:12:00,45.6,39.5,30.09,SE,135,0.0,0.0,79,0.00,,,0.00,WUHU216HW,2013-01-09 14:12:00,
2013-01-09 06:17:00,45.6,39.5,30.09,SE,135,0.0,0.0,79,0.00,,,0.00,WUHU216HW,2013-01-09 14:17:00,
2013-01-09 06:22:00,45.5,39.3,30.08,SE,135,0.0,0.0,79,0.00,,,0.00,WUHU216HW,2013-01-09 14:22:00,
2013-01-09 06:27:00,45.5,39.3,30.08,SE,135,0.0,0.0,79,0.00,,,0.00,WUHU216HW,2013-01-09 14:27:00,
2013-01-09 06:32:00,45.5,39.7,30.08,SE,135,0.0,0.0,80,0.00,,,0.00,WUHU216HW,2013-01-09 14:32:00,
2013-01-09 06:37:00,45.3,39.5,30.07,ESE,113,0.0,0.0,80,0.00,,,0.00,WUHU216HW,2013-01-09 14:37:00,
2013-01-09 06:43:00,45.3,39.5,30.07,ESE,113,0.0,0.0,80,0.00,,,0.00,WUHU216HW,2013-01-09 14:43:00,
2013-01-09 06:48:00,45.1,39.3,30.07,ESE,113,0.0,0.0,80,0.00,,,0.00,WUHU216HW,2013-01-09 14:48:00,
2013-01-09 06:53:00,45.3,39.5,30.08,ESE,113,0.0,0.0,80,0.00,,,0.00,WUHU216HW,2013-01-09 14:53:00,
2013-01-09 06:58:00,45.3,39.5,30.08,ESE,113,0.0,0.0,80,0.00,,,0.00,WUHU216HW,2013-01-09 14:58:00,
2013-01-09 07:03:00,45.3,39.5,30.08,ESE,113,0.0,0.0,80,0.00,,,0.00,WUHU216HW,2013-01-09 15:03:00,
2013-01-09 07:08:00,45.1,39.6,30.09,ESE,113,0.0,0.0,81,0.00,,,0.00,WUHU216HW,2013-01-09 15:08:00,
2013-01-09 07:13:00,45.1,39.6,30.09,ESE,113,0.0,0.0,81,0.00,,,0.00,WUHU216HW,2013-01-09 15:13:00,
2013-01-09 07:18:00,45.1,39.6,30.09,ESE,113,0.0,0.0,81,0.00,,,0.00,WUHU216HW,2013-01-09 15:18:00,
2013-01-09 07:23:00,45.1,39.6,30.09,ESE,113,0.0,0.0,81,0.00,,,0.00,WUHU216HW,2013-01-09 15:23:00,
2013-01-09 07:28:00,45.1,39.6,30.09,ESE,113,0.0,0.0,81,0.00,,,0.00,WUHU216HW,2013-01-09 15:28:00,
2013-01-09 07:33:00,45.1,39.6,30.09,ESE,113,0.0,0.0,81,0.00,,,0.00,WUHU216HW,2013-01-09 15:33:00,
2013-01-09 07:39:00,45.1,39.6,30.09,ESE,113,0.0,0.0,81,0.00,,,0.00,WUHU216HW,2013-01-09 15:39:00,
2013-01-09 07:44:00,45.1,39.6,30.09,SE,135,0.0,0.0,81,0.00,,,0.00,WUHU216HW,2013-01-09 15:44:00,
2013-01-09 07:49:00,45.1,39.6,30.08,SE,135,0.0,0.0,81,0.00,,,0.00,WUHU216HW,2013-01-09 15:49:00,
2013-01-09 07:54:00,45.3,39.8,30.08,SE,135,0.0,0.0,81,0.00,,,0.00,WUHU216HW,2013-01-09 15:54:00,
2013-01-09 07:59:00,45.3,39.8,30.08,ESE,113,0.0,0.0,81,0.00,,,0.00,WUHU216HW,2013-01-09 15:59:00,
2013-01-09 08:04:00,45.3,40.1,30.09,SE,135,0.0,0.0,82,0.00,,,0.00,WUHU216HW,2013-01-09 16:04:00,
2013-01-09 08:09:00,45.5,40.3,30.08,SE,135,0.0,0.0,82,0.00,,,0.00,WUHU216HW,2013-01-09 16:09:00,
2013-01-09 08:14:00,45.5,40.3,30.08,SE,135,0.0,0.0,82,0.00,,,0.00,WUHU216HW,2013-01-09 16:14:00,
2013-01-09 08:19:00,45.6,40.5,30.08,SE,135,0.0,0.0,82,0.00,,,0.00,WUHU216HW,2013-01-09 16:19:00,
2013-01-09 08:24:00,45.6,40.5,30.09,SE,135,0.0,0.0,82,0.00,,,0.00,WUHU216HW,2013-01-09 16:24:00,
2013-01-09 08:29:00,45.6,40.8,30.09,SE,135,0.0,0.6,83,0.00,,,0.00,WUHU216HW,2013-01-09 16:29:00,
2013-01-09 08:35:00,45.6,40.8,30.09,SE,135,0.8,0.8,83,0.00,,,0.00,WUHU216HW,2013-01-09 16:35:00,
2013-01-09 08:40:00,46.0,41.1,30.08,SE,135,0.0,0.8,83,0.00,,,0.00,WUHU216HW,2013-01-09 16:40:00,
2013-01-09 08:45:00,46.0,41.1,30.09,SE,135,0.0,0.4,83,0.00,,,0.00,WUHU216HW,2013-01-09 16:45:00,
2013-01-09 08:50:00,46.0,41.1,30.08,SE,135,0.0,0.0,83,0.00,,,0.00,WUHU216HW,2013-01-09 16:50:00,
2013-01-09 08:55:00,46.2,41.3,30.08,SE,135,0.0,0.0,83,0.00,,,0.00,WUHU216HW,2013-01-09 16:55:00,
2013-01-09 09:00:00,46.2,41.3,30.09,SE,135,0.0,0.0,83,0.00,,,0.00,WUHU216HW,2013-01-09 17:00:00,
2013-01-09 09:05:00,46.5,41.7,30.08,SE,135,0.0,0.0,83,0.00,,,0.00,WUHU216HW,2013-01-09 17:05:00,
2013-01-09 09:10:00,46.5,41.7,30.08,SE,135,0.0,0.0,83,0.00,,,0.00,WUHU216HW,2013-01-09 17:10:00,
2013-01-09 09:15:00,46.5,41.7,30.08,SE,135,0.0,0.6,83,0.00,,,0.00,WUHU216HW,2013-01-09 17:15:00,
2013-01-09 09:20:00,46.5,41.7,30.08,SE,135,0.0,0.6,83,0.00,,,0.00,WUHU216HW,2013-01-09 17:20:00,
2013-01-09 09:25:00,46.7,41.8,30.07,SSE,158,0.0,0.0,83,0.00,,,0.00,WUHU216HW,2013-01-09 17:25:00,
2013-01-09 09:30:00,46.7,41.8,30.08,SSE,158,1.7,1.7,83,0.00,,,0.00,WUHU216HW,2013-01-09 17:30:00,
2013-01-09 09:35:00,46.9,42.0,30.09,SSW,203,0.0,1.7,83,0.00,,,0.00,WUHU216HW,2013-01-09 17:35:00,
2013-01-09 09:41:00,47.1,42.2,30.08,SSE,158,0.0,1.1,83,0.00,,,0.00,WUHU216HW,2013-01-09 17:41:00,
2013-01-09 09:46:00,47.1,42.2,30.08,SSE,158,2.0,2.0,83,0.00,,,0.00,WUHU216HW,2013-01-09 17:46:00,
2013-01-09 09:51:00,47.3,42.7,30.08,SSW,203,0.0,2.6,84,0.00,,,0.00,WUHU216HW,2013-01-09 17:51:00,
2013-01-09 09:56:00,47.3,42.7,30.08,SSE,158,2.6,2.6,84,0.00,,,0.00,WUHU216HW,2013-01-09 17:56:00,
2013-01-09 10:01:00,47.6,43.0,30.08,SE,135,2.0,2.6,84,0.00,,,0.00,WUHU216HW,2013-01-09 18:01:00,
2013-01-09 10:06:00,47.8,43.2,30.08,South,180,0.8,2.6,84,0.00,,,0.00,WUHU216HW,2013-01-09 18:06:00,
2013-01-09 10:11:00,48.0,43.3,30.07,South,180,0.4,2.4,84,0.00,,,0.00,WUHU216HW,2013-01-09 18:11:00,
2013-01-09 10:16:00,48.3,43.5,30.06,SE,135,3.1,3.1,84,0.00,,,0.00,WUHU216HW,2013-01-09 18:16:00,
2013-01-09 10:21:00,48.5,43.8,30.07,SSE,158,2.0,3.1,84,0.00,,,0.00,WUHU216HW,2013-01-09 18:21:00,
2013-01-09 10:26:00,48.7,43.7,30.07,SSE,158,0.0,3.3,83,0.00,,,0.00,WUHU216HW,2013-01-09 18:26:00,
2013-01-09 10:31:00,48.7,43.7,30.06,South,180,5.3,5.3,83,0.00,,,0.00,WUHU216HW,2013-01-09 18:31:00,
2013-01-09 10:37:00,48.7,43.7,30.06,SSE,158,2.2,5.3,83,0.00,,,0.00,WUHU216HW,2013-01-09 18:37:00,
2013-01-09 10:41:00,48.9,43.9,30.06,SSE,158,0.4,5.3,83,0.00,,,0.00,WUHU216HW,2013-01-09 18:41:00,
2013-01-09 10:42:00,48.9,43.9,30.06,SSE,158,0.0,5.3,83,0.00,,,0.00,WUHU216HW,2013-01-09 18:42:00,
2013-01-09 10:44:00,48.9,43.9,30.06,SSE,158,4.9,4.9,83,0.00,,,0.00,WUHU216HW,2013-01-09 18:44:00,
2013-01-09 10:45:00,48.9,43.9,30.06,SSE,158,4.9,4.9,83,0.00,,,0.00,WUHU216HW,2013-01-09 18:45:00,
2013-01-09 10:48:00,48.9,43.9,30.05,South,180,2.2,4.9,83,0.00,,,0.00,WUHU216HW,2013-01-09 18:48:00,
2013-01-09 10:49:00,49.1,43.7,30.05,SSE,158,1.7,4.9,82,0.00,,,0.00,WUHU216HW,2013-01-09 18:49:00,
2013-01-09 10:54:00,49.2,43.9,30.05,SE,135,1.5,4.9,82,0.00,,,0.00,WUHU216HW,2013-01-09 18:54:00,
2013-01-09 10:59:00,49.4,44.1,30.05,SW,225,1.5,1.7,82,0.00,,,0.00,WUHU216HW,2013-01-09 18:59:00,
2013-01-09 11:04:00,49.6,44.3,30.05,South,180,0.0,2.2,82,0.00,,,0.00,WUHU216HW,2013-01-09 19:04:00,
2013-01-09 11:09:00,49.6,44.3,30.04,South,180,1.1,3.1,82,0.00,,,0.00,WUHU216HW,2013-01-09 19:09:00,
2013-01-09 11:14:00,49.8,44.4,30.04,SSE,158,2.0,3.1,82,0.00,,,0.00,WUHU216HW,2013-01-09 19:14:00,
2013-01-09 11:19:00,49.8,44.4,30.04,SSW,203,0.0,2.6,82,0.00,,,0.00,WUHU216HW,2013-01-09 19:19:00,
2013-01-09 11:25:00,50.1,44.5,30.04,SW,225,0.0,2.0,81,0.00,,,0.00,WUHU216HW,2013-01-09 19:25:00,
2013-01-09 11:30:00,50.3,44.7,30.04,SSW,203,0.0,3.1,81,0.00,,,0.00,WUHU216HW,2013-01-09 19:30:00,
2013-01-09 11:35:00,50.5,44.9,30.03,SSW,203,3.8,3.8,81,0.00,,,0.00,WUHU216HW,2013-01-09 19:35:00,
2013-01-09 11:40:00,50.7,44.7,30.03,SW,225,4.6,4.6,80,0.00,,,0.00,WUHU216HW,2013-01-09 19:40:00,
2013-01-09 11:45:00,50.7,44.7,30.03,SSW,203,3.8,4.6,80,0.00,,,0.00,WUHU216HW,2013-01-09 19:45:00,
2013-01-09 11:50:00,50.7,44.7,30.03,SSE,158,1.3,4.6,80,0.00,,,0.00,WUHU216HW,2013-01-09 19:50:00,
2013-01-09 11:55:00,50.7,44.4,30.03,South,180,2.6,3.8,79,0.00,,,0.00,WUHU216HW,2013-01-09 19:55:00,
2013-01-09 12:00:00,50.7,44.4,30.02,South,180,1.1,4.4,79,0.00,,,0.00,WUHU216HW,2013-01-09 20:00:00,
2013-01-09 12:05:00,50.7,44.4,30.02,SW,225,0.0,4.4,79,0.00,,,0.00,WUHU216HW,2013-01-09 20:05:00,
2013-01-09 12:10:00,50.9,44.9,30.02,SSE,158,4.0,4.0,80,0.00,,,0.00,WUHU216HW,2013-01-09 20:10:00,
2013-01-09 12:15:00,50.9,44.9,30.01,SSW,203,2.4,4.9,80,0.00,,,0.00,WUHU216HW,2013-01-09 20:15:00,
2013-01-09 12:21:00,50.9,44.9,30.02,South,180,1.1,8.2,80,0.00,,,0.00,WUHU216HW,2013-01-09 20:21:00,
2013-01-09 12:26:00,50.7,44.7,30.01,SSE,158,2.2,8.2,80,0.00,,,0.00,WUHU216HW,2013-01-09 20:26:00,
2013-01-09 12:31:00,50.7,44.7,30.01,SW,225,5.1,5.1,80,0.00,,,0.00,WUHU216HW,2013-01-09 20:31:00,
2013-01-09 12:36:00,50.7,44.7,30.01,SSW,203,5.3,5.3,80,0.00,,,0.00,WUHU216HW,2013-01-09 20:36:00,
2013-01-09 12:41:00,50.7,44.7,30.00,SW,225,2.2,5.3,80,0.00,,,0.00,WUHU216HW,2013-01-09 20:41:00,
2013-01-09 12:46:00,50.7,44.7,30.00,SSW,203,0.0,5.3,80,0.00,,,0.00,WUHU216HW,2013-01-09 20:46:00,
2013-01-09 12:51:00,50.7,44.7,29.99,SSE,158,2.2,2.6,80,0.00,,,0.00,WUHU216HW,2013-01-09 20:51:00,
2013-01-09 12:56:00,50.9,45.2,30.00,SSW,203,2.4,3.3,81,0.00,,,0.00,WUHU216HW,2013-01-09 20:56:00,
2013-01-09 13:01:00,50.7,44.7,30.00,South,180,3.1,4.0,81,0.00,,,0.00,WUHU216HW,2013-01-09 21:01:00,
2013-01-09 13:06:00,50.7,45.0,30.00,SE,135,3.1,4.0,81,0.00,,,0.00,WUHU216HW,2013-01-09 21:06:00,
2013-01-09 13:11:00,50.7,45.0,29.99,SSE,158,0.0,4.6,81,0.00,,,0.00,WUHU216HW,2013-01-09 21:11:00,
2013-01-09 13:16:00,50.9,45.2,29.99,SSE,158,5.5,5.5,81,0.00,,,0.00,WUHU216HW,2013-01-09 21:16:00,
2013-01-09 13:22:00,50.9,45.2,29.99,SE,135,0.8,5.5,81,0.00,,,0.00,WUHU216HW,2013-01-09 21:22:00,
2013-01-09 13:27:00,50.9,45.2,29.99,SSE,158,0.0,5.5,81,0.00,,,0.00,WUHU216HW,2013-01-09 21:27:00,
2013-01-09 13:32:00,50.9,45.2,29.99,SSE,158,0.0,6.2,81,0.00,,,0.00,WUHU216HW,2013-01-09 21:32:00,
2013-01-09 13:37:00,51.0,45.4,29.99,SSW,203,6.0,6.2,81,0.00,,,0.00,WUHU216HW,2013-01-09 21:37:00,
2013-01-09 13:42:00,51.0,45.4,29.99,SSW,203,4.4,6.0,81,0.00,,,0.00,WUHU216HW,2013-01-09 21:42:00,
2013-01-09 13:47:00,51.0,45.7,29.99,SE,135,1.3,4.4,82,0.00,,,0.00,WUHU216HW,2013-01-09 21:47:00,
2013-01-09 13:52:00,51.0,45.7,29.98,SW,225,3.3,4.4,82,0.00,,,0.00,WUHU216HW,2013-01-09 21:52:00,
2013-01-09 13:57:00,51.0,45.7,29.98,SSW,203,2.4,6.2,82,0.00,,,0.00,WUHU216HW,2013-01-09 21:57:00,
2013-01-09 14:02:00,51.0,45.7,29.98,SW,225,0.6,6.2,82,0.00,,,0.00,WUHU216HW,2013-01-09 22:02:00,
2013-01-09 14:07:00,51.0,45.7,29.98,South,180,0.8,2.4,82,0.00,,,0.00,WUHU216HW,2013-01-09 22:07:00,
2013-01-09 14:12:00,51.0,45.7,29.98,SW,225,4.2,4.2,82,0.00,,,0.00,WUHU216HW,2013-01-09 22:12:00,
2013-01-09 14:18:00,51.0,45.7,29.98,SSE,158,2.9,4.2,82,0.00,,,0.00,WUHU216HW,2013-01-09 22:18:00,
2013-01-09 14:23:00,51.0,45.7,29.97,SE,135,5.1,5.1,82,0.00,,,0.00,WUHU216HW,2013-01-09 22:23:00,
2013-01-09 14:28:00,51.2,45.9,29.97,WSW,248,5.3,5.3,82,0.00,,,0.00,WUHU216HW,2013-01-09 22:28:00,
2013-01-09 14:33:00,51.2,46.2,29.97,SW,225,2.9,7.1,83,0.00,,,0.00,WUHU216HW,2013-01-09 22:33:00,
2013-01-09 14:38:00,51.2,46.2,29.97,SSW,203,1.5,7.1,83,0.00,,,0.00,WUHU216HW,2013-01-09 22:38:00,
2013-01-09 14:43:00,51.2,46.5,29.97,WSW,248,1.3,4.2,84,0.00,,,0.00,WUHU216HW,2013-01-09 22:43:00,
2013-01-09 14:48:00,51.0,46.3,29.97,SSW,203,4.2,4.2,84,0.00,,,0.00,WUHU216HW,2013-01-09 22:48:00,
2013-01-09 14:53:00,51.0,46.3,29.97,SSW,203,0.0,4.9,84,0.00,,,0.00,WUHU216HW,2013-01-09 22:53:00,
2013-01-09 14:58:00,51.0,46.3,29.97,WSW,248,1.3,4.9,84,0.00,,,0.00,WUHU216HW,2013-01-09 22:58:00,
2013-01-09 15:03:00,51.0,46.3,29.97,SW,225,0.0,1.3,84,0.00,,,0.00,WUHU216HW,2013-01-09 23:03:00,
2013-01-09 15:09:00,51.0,46.3,29.98,WSW,248,1.3,1.3,84,0.00,,,0.00,WUHU216HW,2013-01-09 23:09:00,
2013-01-09 15:14:00,50.7,45.8,29.98,North,0,0.0,4.4,83,0.00,,,0.00,WUHU216HW,2013-01-09 23:14:00,
2013-01-09 15:19:00,50.7,45.3,29.97,NW,315,1.3,4.4,82,0.00,,,0.00,WUHU216HW,2013-01-09 23:19:00,
2013-01-09 15:24:00,50.5,45.2,29.98,SW,225,0.0,1.3,82,0.00,,,0.00,WUHU216HW,2013-01-09 23:24:00,
2013-01-09 15:29:00,50.3,44.7,29.98,NNE,23,0.0,1.3,82,0.00,,,0.00,WUHU216HW,2013-01-09 23:29:00,
2013-01-09 15:34:00,50.1,44.5,29.98,SSW,203,0.0,0.0,81,0.00,,,0.00,WUHU216HW,2013-01-09 23:34:00,
2013-01-09 15:39:00,50.1,44.2,29.98,SSW,203,3.3,3.3,80,0.00,,,0.00,WUHU216HW,2013-01-09 23:39:00,
2013-01-09 15:44:00,50.1,44.2,29.98,WNW,293,0.0,3.3,80,0.00,,,0.00,WUHU216HW,2013-01-09 23:44:00,
2013-01-09 15:49:00,49.8,43.5,29.97,SSW,203,0.0,0.8,79,0.00,,,0.00,WUHU216HW,2013-01-09 23:49:00,
2013-01-09 15:54:00,49.8,43.1,29.97,WNW,293,0.0,0.8,78,0.00,,,0.00,WUHU216HW,2013-01-09 23:54:00,
2013-01-09 15:59:00,49.8,43.1,29.97,WSW,248,0.0,0.0,78,0.00,,,0.00,WUHU216HW,2013-01-09 23:59:00,
2013-01-09 16:05:00,49.8,42.8,29.98,SSW,203,0.0,0.0,77,0.00,,,0.00,WUHU216HW,2013-01-10 00:05:00,
2013-01-09 16:10:00,49.8,42.8,29.97,SW,225,1.5,1.5,77,0.00,,,0.00,WUHU216HW,2013-01-10 00:10:00,
2013-01-09 16:15:00,49.8,42.5,29.97,WNW,293,0.0,1.5,76,0.00,,,0.00,WUHU216HW,2013-01-10 00:15:00,
2013-01-09 16:20:00,50.0,42.6,29.98,SSE,158,3.8,3.8,76,0.00,,,0.00,WUHU216HW,2013-01-10 00:20:00,
2013-01-09 16:25:00,50.0,42.6,29.98,NNW,338,4.9,4.9,76,0.00,,,0.00,WUHU216HW,2013-01-10 00:25:00,
2013-01-09 16:30:00,49.8,42.5,29.98,WNW,293,0.0,4.9,76,0.00,,,0.00,WUHU216HW,2013-01-10 00:30:00,
2013-01-09 16:35:00,49.8,42.1,29.97,NNW,338,0.0,4.9,75,0.00,,,0.00,WUHU216HW,2013-01-10 00:35:00,
2013-01-09 16:40:00,49.6,41.6,29.97,South,180,0.0,1.5,74,0.00,,,0.00,WUHU216HW,2013-01-10 00:40:00,
2013-01-09 16:45:00,49.6,41.6,29.98,West,270,0.2,0.2,74,0.00,,,0.00,WUHU216HW,2013-01-10 00:45:00,
2013-01-09 16:50:00,49.6,41.3,29.98,NNE,23,4.6,4.6,73,0.00,,,0.00,WUHU216HW,2013-01-10 00:50:00,
2013-01-09 16:55:00,49.6,41.3,29.97,WSW,248,0.0,4.6,73,0.00,,,0.00,WUHU216HW,2013-01-10 00:55:00,
2013-01-09 17:00:00,49.2,40.9,29.97,NW,315,0.0,0.0,73,0.00,,,0.00,WUHU216HW,2013-01-10 01:00:00,
2013-01-09 17:06:00,49.2,40.6,29.97,WSW,248,1.5,1.5,72,0.00,,,0.00,WUHU216HW,2013-01-10 01:06:00,
2013-01-09 17:11:00,49.2,40.6,29.97,South,180,0.0,1.5,72,0.00,,,0.00,WUHU216HW,2013-01-10 01:11:00,
2013-01-09 17:16:00,49.1,40.4,29.97,NNE,23,0.0,1.5,72,0.00,,,0.00,WUHU216HW,2013-01-10 01:16:00,
2013-01-09 17:21:00,49.1,40.0,29.97,North,0,0.0,0.0,71,0.00,,,0.00,WUHU216HW,2013-01-10 01:21:00,
2013-01-09 17:26:00,49.1,40.0,29.98,West,270,0.0,0.0,71,0.00,,,0.00,WUHU216HW,2013-01-10 01:26:00,
2013-01-09 17:31:00,49.1,40.0,29.98,NW,315,0.0,0.0,71,0.00,,,0.00,WUHU216HW,2013-01-10 01:31:00,
2013-01-09 17:36:00,48.9,39.9,29.98,NNE,23,0.0,1.5,71,0.00,,,0.00,WUHU216HW,2013-01-10 01:36:00,
2013-01-09 17:41:00,48.9,39.9,29.98,WNW,293,0.0,1.5,71,0.00,,,0.00,WUHU216HW,2013-01-10 01:41:00,
2013-01-09 17:46:00,48.9,39.9,29.98,SE,135,0.0,0.0,71,0.00,,,0.00,WUHU216HW,2013-01-10 01:46:00,
2013-01-09 17:52:00,48.7,39.3,29.98,WNW,293,0.0,2.9,70,0.00,,,0.00,WUHU216HW,2013-01-10 01:52:00,
2013-01-09 17:57:00,48.7,39.3,29.98,SW,225,1.7,2.9,70,0.00,,,0.00,WUHU216HW,2013-01-10 01:57:00,
2013-01-09 18:02:00,48.7,39.3,29.98,ENE,68,0.0,1.7,70,0.00,,,0.00,WUHU216HW,2013-01-10 02:02:00,
2013-01-09 18:07:00,48.7,39.3,29.98,ENE,68,1.1,1.7,70,0.00,,,0.00,WUHU216HW,2013-01-10 02:07:00,
2013-01-09 18:12:00,48.7,39.3,29.98,North,0,0.0,1.1,70,0.00,,,0.00,WUHU216HW,2013-01-10 02:12:00,
2013-01-09 18:17:00,48.5,39.2,29.98,WNW,293,0.0,0.0,70,0.00,,,0.00,WUHU216HW,2013-01-10 02:17:00,
2013-01-09 18:22:00,48.5,38.8,29.98,ENE,68,0.0,0.0,69,0.00,,,0.00,WUHU216HW,2013-01-10 02:22:00,
2013-01-09 18:27:00,48.3,38.2,29.99,NNW,338,0.0,0.0,68,0.00,,,0.00,WUHU216HW,2013-01-10 02:27:00,
2013-01-09 18:32:00,48.2,38.0,29.99,West,270,0.0,0.0,68,0.00,,,0.00,WUHU216HW,2013-01-10 02:32:00,
2013-01-09 18:37:00,48.0,37.9,29.99,West,270,0.0,0.0,68,0.00,,,0.00,WUHU216HW,2013-01-10 02:37:00,
2013-01-09 18:42:00,48.0,37.9,29.99,WNW,293,0.0,0.0,68,0.00,,,0.00,WUHU216HW,2013-01-10 02:42:00,
2013-01-09 18:47:00,48.0,37.9,29.99,West,270,0.0,0.0,68,0.00,,,0.00,WUHU216HW,2013-01-10 02:47:00,
2013-01-09 18:53:00,48.0,37.5,29.99,North,0,0.0,2.2,67,0.00,,,0.00,WUHU216HW,2013-01-10 02:53:00,
2013-01-09 18:58:00,47.8,37.3,29.99,WSW,248,0.0,2.4,67,0.00,,,0.00,WUHU216HW,2013-01-10 02:58:00,
2013-01-09 19:03:00,47.8,37.3,29.99,SW,225,0.0,2.4,67,0.00,,,0.00,WUHU216HW,2013-01-10 03:03:00,
2013-01-09 19:08:00,47.6,37.2,30.00,WNW,293,0.0,0.0,67,0.00,,,0.00,WUHU216HW,2013-01-10 03:08:00,
2013-01-09 19:13:00,47.4,37.0,30.00,WNW,293,0.0,0.0,67,0.00,,,0.00,WUHU216HW,2013-01-10 03:13:00,
2013-01-09 19:18:00,47.3,36.8,30.00,WNW,293,0.0,0.0,67,0.00,,,0.00,WUHU216HW,2013-01-10 03:18:00,
2013-01-09 19:23:00,47.1,37.0,30.00,SSW,203,0.0,0.0,68,0.00,,,0.00,WUHU216HW,2013-01-10 03:23:00,
2013-01-09 19:28:00,47.1,37.0,30.00,SSW,203,0.0,0.0,68,0.00,,,0.00,WUHU216HW,2013-01-10 03:28:00,
2013-01-09 19:33:00,46.9,36.9,30.00,WNW,293,0.0,0.0,68,0.00,,,0.00,WUHU216HW,2013-01-10 03:33:00,
2013-01-09 19:38:00,46.9,36.9,30.01,NW,315,0.0,0.0,68,0.00,,,0.00,WUHU216HW,2013-01-10 03:38:00,
2013-01-09 19:43:00,46.7,36.7,30.01,North,0,0.0,0.0,68,0.00,,,0.00,WUHU216HW,2013-01-10 03:43:00,
2013-01-09 19:48:00,46.5,36.5,30.01,ENE,68,0.0,0.0,68,0.00,,,0.00,WUHU216HW,2013-01-10 03:48:00,
2013-01-09 19:54:00,46.5,36.1,30.01,NW,315,0.0,0.0,67,0.00,,,0.00,WUHU216HW,2013-01-10 03:54:00,
2013-01-09 19:59:00,46.5,36.1,30.01,WNW,293,0.0,0.0,67,0.00,,,0.00,WUHU216HW,2013-01-10 03:59:00,
2013-01-09 20:04:00,46.5,36.1,30.01,NNE,23,0.0,0.0,67,0.00,,,0.00,WUHU216HW,2013-01-10 04:04:00,
2013-01-09 20:09:00,46.5,36.5,30.01,West,270,0.0,0.0,68,0.00,,,0.00,WUHU216HW,2013-01-10 04:09:00,
2013-01-09 20:14:00,46.2,36.2,30.02,West,270,0.0,0.0,68,0.00,,,0.00,WUHU216HW,2013-01-10 04:14:00,
2013-01-09 20:19:00,46.2,36.2,30.02,South,180,0.0,0.0,68,0.00,,,0.00,WUHU216HW,2013-01-10 04:19:00,
2013-01-09 20:24:00,46.2,36.2,30.02,North,0,0.6,0.6,68,0.00,,,0.00,WUHU216HW,2013-01-10 04:24:00,
2013-01-09 20:29:00,46.0,36.0,30.02,WNW,293,0.0,0.6,68,0.00,,,0.00,WUHU216HW,2013-01-10 04:29:00,
2013-01-09 20:34:00,46.0,36.0,30.02,WNW,293,0.0,0.0,68,0.00,,,0.00,WUHU216HW,2013-01-10 04:34:00,
2013-01-09 20:39:00,45.8,35.8,30.03,WNW,293,0.0,0.0,68,0.00,,,0.00,WUHU216HW,2013-01-10 04:39:00,
2013-01-09 20:44:00,45.6,35.7,30.03,WNW,293,0.0,0.0,68,0.00,,,0.00,WUHU216HW,2013-01-10 04:44:00,
2013-01-09 20:50:00,45.6,35.7,30.03,WNW,293,0.0,0.0,68,0.00,,,0.00,WUHU216HW,2013-01-10 04:50:00,
2013-01-09 20:55:00,45.6,35.7,30.03,WSW,248,0.0,0.0,68,0.00,,,0.00,WUHU216HW,2013-01-10 04:55:00,
2013-01-09 21:00:00,45.5,35.5,30.03,WSW,248,0.0,0.0,68,0.00,,,0.00,WUHU216HW,2013-01-10 05:00:00,
2013-01-09 21:01:00,45.5,35.5,30.03,WSW,248,0.0,0.0,68,0.00,,,0.00,WUHU216HW,2013-01-10 05:01:00,
2013-01-09 21:06:00,45.3,35.3,30.03,WSW,248,0.0,0.0,68,0.00,,,0.00,WUHU216HW,2013-01-10 05:06:00,
2013-01-09 21:11:00,45.3,35.3,30.04,WSW,248,0.0,0.0,68,0.00,,,0.00,WUHU216HW,2013-01-10 05:11:00,
2013-01-09 21:16:00,45.3,35.3,30.04,WSW,248,0.0,0.0,68,0.00,,,0.00,WUHU216HW,2013-01-10 05:16:00,
2013-01-09 21:22:00,45.1,35.1,30.04,WNW,293,0.0,0.0,68,0.00,,,0.00,WUHU216HW,2013-01-10 05:22:00,
2013-01-09 21:27:00,44.9,35.0,30.04,South,180,0.0,0.0,68,0.00,,,0.00,WUHU216HW,2013-01-10 05:27:00,
2013-01-09 21:32:00,44.9,35.0,30.04,South,180,0.0,0.0,68,0.00,,,0.00,WUHU216HW,2013-01-10 05:32:00,
2013-01-09 21:37:00,44.7,35.2,30.04,SSW,203,0.0,0.0,69,0.00,,,0.00,WUHU216HW,2013-01-10 05:37:00,
2013-01-09 21:42:00,44.7,35.2,30.05,South,180,0.0,0.0,69,0.00,,,0.00,WUHU216HW,2013-01-10 05:42:00,
2013-01-09 21:47:00,44.4,34.8,30.04,South,180,0.0,0.0,69,0.00,,,0.00,WUHU216HW,2013-01-10 05:47:00,
2013-01-09 21:52:00,44.4,34.8,30.05,SSW,203,0.0,0.0,69,0.00,,,0.00,WUHU216HW,2013-01-10 05:52:00,
2013-01-09 21:57:00,44.4,34.8,30.04,SSW,203,0.0,0.0,69,0.00,,,0.00,WUHU216HW,2013-01-10 05:57:00,
2013-01-09 22:02:00,44.4,34.8,30.05,SSW,203,0.0,0.0,69,0.00,,,0.00,WUHU216HW,2013-01-10 06:02:00,
2013-01-09 22:07:00,44.4,34.8,30.05,SSW,203,0.0,0.0,69,0.00,,,0.00,WUHU216HW,2013-01-10 06:07:00,
2013-01-09 22:12:00,44.4,34.8,30.05,SSW,203,0.0,0.0,69,0.00,,,0.00,WUHU216HW,2013-01-10 06:12:00,
2013-01-09 22:17:00,44.2,34.7,30.05,WSW,248,0.0,0.0,69,0.00,,,0.00,WUHU216HW,2013-01-10 06:17:00,
2013-01-09 22:23:00,44.0,34.9,30.05,WSW,248,0.0,0.0,70,0.00,,,0.00,WUHU216HW,2013-01-10 06:23:00,
2013-01-09 22:28:00,44.0,34.9,30.05,WSW,248,0.0,0.0,70,0.00,,,0.00,WUHU216HW,2013-01-10 06:28:00,
2013-01-09 22:33:00,44.0,34.9,30.05,WSW,248,0.0,0.0,70,0.00,,,0.00,WUHU216HW,2013-01-10 06:33:00,
2013-01-09 22:38:00,43.8,34.7,30.05,WSW,248,0.0,0.0,70,0.00,,,0.00,WUHU216HW,2013-01-10 06:38:00,
2013-01-09 22:43:00,43.8,34.7,30.05,WSW,248,0.0,0.0,70,0.00,,,0.00,WUHU216HW,2013-01-10 06:43:00,
2013-01-09 22:48:00,43.7,34.9,30.05,WSW,248,0.0,0.0,71,0.00,,,0.00,WUHU216HW,2013-01-10 06:48:00,
2013-01-09 22:53:00,43.5,34.7,30.05,WSW,248,0.0,0.0,71,0.00,,,0.00,WUHU216HW,2013-01-10 06:53:00,
2013-01-09 22:58:00,43.5,34.7,30.05,WSW,248,0.0,0.0,71,0.00,,,0.00,WUHU216HW,2013-01-10 06:58:00,
2013-01-09 23:03:00,43.3,34.6,30.05,WSW,248,0.0,0.0,71,0.00,,,0.00,WUHU216HW,2013-01-10 07:03:00,
2013-01-09 23:08:00,43.1,34.7,30.06,SW,225,0.0,0.0,72,0.00,,,0.00,WUHU216HW,2013-01-10 07:08:00,
2013-01-09 23:13:00,42.9,34.6,30.06,WSW,248,0.0,0.0,72,0.00,,,0.00,WUHU216HW,2013-01-10 07:13:00,
2013-01-09 23:18:00,42.9,34.6,30.06,WSW,248,0.0,0.0,72,0.00,,,0.00,WUHU216HW,2013-01-10 07:18:00,
2013-01-09 23:23:00,42.9,34.6,30.06,WSW,248,0.0,0.0,72,0.00,,,0.00,WUHU216HW,2013-01-10 07:23:00,
2013-01-09 23:28:00,42.6,34.2,30.06,WSW,248,0.0,0.0,72,0.00,,,0.00,WUHU216HW,2013-01-10 07:28:00,
2013-01-09 23:34:00,42.6,34.2,30.06,West,270,0.0,0.0,72,0.00,,,0.00,WUHU216HW,2013-01-10 07:34:00,
2013-01-09 23:39:00,42.6,34.2,30.06,West,270,0.0,0.0,72,0.00,,,0.00,WUHU216HW,2013-01-10 07:39:00,
2013-01-09 23:44:00,42.6,34.2,30.06,West,270,0.0,0.0,72,0.00,,,0.00,WUHU216HW,2013-01-10 07:44:00,
2013-01-09 23:49:00,42.6,34.5,30.05,West,270,0.0,0.0,73,0.00,,,0.00,WUHU216HW,2013-01-10 07:49:00,
2013-01-09 23:54:00,42.6,34.5,30.05,North,0,0.0,0.0,73,0.00,,,0.00,WUHU216HW,2013-01-10 07:54:00,
2013-01-09 23:59:00,42.4,34.4,30.05,South,180,0.0,0.4,73,0.00,,,0.00,WUHU216HW,2013-01-10 07:59:00,